Stündliche Wetter Centerville

Heute, 24 Januar, Sonntag

Zeit Temperatur Niederschläge Wind Luftdruck Luftfeuchtigkeit
00:00 -6°C° 0 mm 3 m/S 740 mmHg 53%
01:00 -6°C° 0 mm 3 m/S 740 mmHg 54%
02:00 -6°C° 0 mm 3 m/S 739 mmHg 55%
03:00 -7°C° 0 mm 4 m/S 738 mmHg 56%
04:00 -7°C° 0 mm 4 m/S 738 mmHg 55%
05:00 -7°C° 0 mm 4 m/S 738 mmHg 53%
06:00 -5°C° 0 mm 4 m/S 737 mmHg 52%
07:00 -5°C° 0 mm 3 m/S 737 mmHg 50%
08:00 -4°C° 0 mm 3 m/S 737 mmHg 49%
09:00 -2°C° 0 mm 3 m/S 737 mmHg 48%
10:00 -2°C° 0.1 mm 3 m/S 737 mmHg 51%
11:00 -2°C° 0.1 mm 3 m/S 736 mmHg 54%
12:00 -1°C° 0.1 mm 3 m/S 735 mmHg 57%
13:00 0°C° 0 mm 3 m/S 735 mmHg 61%
14:00 +1°C° 0 mm 2 m/S 735 mmHg 65%
15:00 +2°C° 0 mm 2 m/S 735 mmHg 68%
16:00 +1°C° 0 mm 2 m/S 735 mmHg 74%
17:00 +1°C° 0 mm 1 m/S 735 mmHg 80%
18:00 +1°C° 0 mm 1 m/S 735 mmHg 86%
19:00 +1°C° 0.3 mm 1 m/S 735 mmHg 88%
20:00 +1°C° 0.3 mm 1 m/S 735 mmHg 90%
21:00 +1°C° 0.3 mm 1 m/S 735 mmHg 93%
22:00 +1°C° 0.4 mm 1 m/S 735 mmHg 93%
23:00 +1°C° 0.4 mm 1 m/S 734 mmHg 94%

Morgen, 25 Januar, Montag

Zeit Temperatur Niederschläge Wind Luftdruck Luftfeuchtigkeit
00:00 -1°C° 0.4 mm 2 m/S 734 mmHg 95%
01:00 -1°C° 0 mm 2 m/S 734 mmHg 95%
02:00 -1°C° 0 mm 2 m/S 734 mmHg 94%
03:00 -1°C° 0 mm 2 m/S 733 mmHg 94%
04:00 -2°C° 0 mm 3 m/S 733 mmHg 94%
05:00 -2°C° 0 mm 3 m/S 733 mmHg 93%
06:00 -3°C° 0 mm 4 m/S 733 mmHg 93%
07:00 -2°C° 0 mm 4 m/S 733 mmHg 92%
08:00 -2°C° 0 mm 4 m/S 732 mmHg 90%
09:00 -2°C° 0 mm 4 m/S 732 mmHg 89%
10:00 -2°C° 0.2 mm 4 m/S 731 mmHg 89%
11:00 -1°C° 0.2 mm 4 m/S 731 mmHg 90%
12:00 -1°C° 0.2 mm 4 m/S 730 mmHg 91%
13:00 -1°C° 0.2 mm 4 m/S 729 mmHg 90%
14:00 -1°C° 0.2 mm 5 m/S 728 mmHg 90%
15:00 0°C° 0.2 mm 5 m/S 728 mmHg 90%
16:00 -1°C° 0.4 mm 5 m/S 727 mmHg 91%
17:00 -1°C° 0.4 mm 5 m/S 727 mmHg 92%
18:00 -1°C° 0.4 mm 5 m/S 727 mmHg 92%
19:00 -2°C° 1.2 mm 5 m/S 727 mmHg 94%
20:00 -3°C° 1.2 mm 6 m/S 727 mmHg 95%
21:00 -3°C° 1.2 mm 7 m/S 727 mmHg 96%
22:00 -3°C° 1.4 mm 7 m/S 726 mmHg 96%
23:00 -3°C° 1.4 mm 7 m/S 726 mmHg 95%

übermorgen, 26 Januar, Dienstag

Zeit Temperatur Niederschläge Wind Luftdruck Luftfeuchtigkeit
00:00 -4°C° 1.4 mm 8 m/S 726 mmHg 94%
01:00 -3°C° 1.9 mm 7 m/S 727 mmHg 95%
02:00 -4°C° 1.9 mm 7 m/S 727 mmHg 95%
03:00 -4°C° 1.9 mm 7 m/S 728 mmHg 96%
04:00 -4°C° 0.3 mm 6 m/S 729 mmHg 94%
05:00 -5°C° 0.3 mm 6 m/S 730 mmHg 92%
06:00 -5°C° 0.3 mm 6 m/S 731 mmHg 90%
07:00 -5°C° 0 mm 6 m/S 733 mmHg 90%
08:00 -5°C° 0 mm 6 m/S 734 mmHg 89%
09:00 -5°C° 0 mm 5 m/S 735 mmHg 89%
10:00 -4°C° 0 mm 5 m/S 735 mmHg 89%
11:00 -4°C° 0 mm 5 m/S 736 mmHg 89%
12:00 -2°C° 0 mm 5 m/S 736 mmHg 90%
13:00 -2°C° 0 mm 4 m/S 736 mmHg 89%
14:00 -2°C° 0 mm 4 m/S 737 mmHg 88%
15:00 -2°C° 0 mm 4 m/S 737 mmHg 87%
16:00 -2°C° 0 mm 3 m/S 738 mmHg 88%
17:00 -5°C° 0 mm 3 m/S 738 mmHg 89%
18:00 -6°C° 0 mm 3 m/S 739 mmHg 90%
19:00 -7°C° 0 mm 3 m/S 739 mmHg 90%
20:00 -7°C° 0 mm 3 m/S 739 mmHg 91%
21:00 -8°C° 0 mm 3 m/S 740 mmHg 91%
22:00 -8°C° 0 mm 3 m/S 740 mmHg 91%
23:00 -8°C° 0 mm 3 m/S 740 mmHg 91%

27 Januar, Mittwoch

Zeit Temperatur Niederschläge Wind Luftdruck Luftfeuchtigkeit
00:00 -8°C° 0 mm 3 m/S 740 mmHg 92%
01:00 -8°C° 0 mm 3 m/S 740 mmHg 92%
02:00 -8°C° 0 mm 3 m/S 739 mmHg 92%
03:00 -8°C° 0 mm 3 m/S 739 mmHg 92%
04:00 -8°C° 0 mm 3 m/S 740 mmHg 92%
05:00 -8°C° 0 mm 3 m/S 740 mmHg 92%
06:00 -8°C° 0 mm 3 m/S 740 mmHg 92%
07:00 -9°C° 0 mm 4 m/S 740 mmHg 91%
08:00 -8°C° 0 mm 5 m/S 740 mmHg 90%
09:00 -7°C° 0 mm 5 m/S 740 mmHg 89%
10:00 -6°C° 0 mm 5 m/S 739 mmHg 88%
11:00 -5°C° 0 mm 5 m/S 739 mmHg 87%
12:00 -4°C° 0 mm 5 m/S 739 mmHg 87%
13:00 -5°C° 0 mm 5 m/S 738 mmHg 86%
14:00 -5°C° 0 mm 6 m/S 738 mmHg 85%
15:00 -5°C° 0 mm 6 m/S 737 mmHg 84%
16:00 -5°C° 0 mm 6 m/S 737 mmHg 85%
17:00 -6°C° 0 mm 5 m/S 737 mmHg 85%
18:00 -6°C° 0 mm 5 m/S 738 mmHg 86%
19:00 -7°C° 0 mm 5 m/S 738 mmHg 86%
20:00 -8°C° 0 mm 6 m/S 738 mmHg 86%
21:00 -9°C° 0 mm 6 m/S 738 mmHg 86%
22:00 -9°C° 0 mm 6 m/S 739 mmHg 87%
23:00 -9°C° 0 mm 6 m/S 739 mmHg 87%

28 Januar, Donnerstag

Zeit Temperatur Niederschläge Wind Luftdruck Luftfeuchtigkeit
00:00 -9°C° 0 mm 6 m/S 740 mmHg 87%
01:00 -10°C° 0 mm 6 m/S 740 mmHg 87%
02:00 -10°C° 0 mm 5 m/S 741 mmHg 87%
03:00 -10°C° 0 mm 5 m/S 741 mmHg 87%
04:00 -11°C° 0 mm 5 m/S 742 mmHg 87%
05:00 -12°C° 0 mm 5 m/S 742 mmHg 88%
06:00 -12°C° 0 mm 5 m/S 743 mmHg 88%
07:00 -12°C° 0 mm 5 m/S 744 mmHg 87%
08:00 -10°C° 0 mm 4 m/S 744 mmHg 85%
09:00 -10°C° 0 mm 4 m/S 745 mmHg 84%
10:00 -8°C° 0 mm 3 m/S 745 mmHg 83%
11:00 -7°C° 0 mm 3 m/S 745 mmHg 83%
12:00 -6°C° 0 mm 3 m/S 746 mmHg 82%

29 Januar, Freitag

Zeit Temperatur Niederschläge Wind Luftdruck Luftfeuchtigkeit
Mehr zeigen

Wir brauchen deine Erlaubnis

Meteoprog und unser Service Anbieter werden persönliche Daten aufbewahren, so wie Cookies, Geräte Bezeichnung oder ähnliche Technologien von deinem Gerät und Prozess, so wie Persönliche Daten Inhalte und Werbungen, genauso wie social Media und den Verkehr zu analysieren.

  • Aufbewahrung und/oder Zugang zu deiner Geräte Informationen.

    Cookies, Geräte Bezeichnung oder andere Informationen, können aufbewahrt oder Zugang zu deinem Gerät erhalten, für den Grund, der oben angegeben wird.

  • Personalisierte Werbung und Inhalte, Messungen, Einblick in das Publikum und Produkt Entwicklung.

    Werbungen und Inhalte können personalisiert werden, basierend auf ein Profil. Mehr Daten können besser personalisierte Werbungen und Inhalte hinzufügen. Werbung und Inhalte können gezeigt und gemessen werden. Einblicke über das Publikum, welche die Werbung gesehen haben und den Inhalt, können abgeleitet werden. So wie Daten können genutzt werden, um es zu verbessern oder die Benutzer Erfahrung zu verbessern das System und die Software.

Wenn du “Ich stimme zu” klickst, erlaubst du uns, die Cookies zu benutzen die Geräte Bezeichnung, den Web oder ähnliche Technologien zu benutzen. Deine Settings, können in deinem Gerät bei deinem Browser geändert werden.

Für den bestimmten Zweck, berechtigten Interessen beruhen darauf, mehr als auf den Inhalt. Du kannst mehr darüber in unseren Privaten und Cookie Politik lesen.